This is the latest recevied weather packets stored in our database for station/object N3OZD-10. If no packets are shown the sender has not sent any weather packets the latest 10 day(s).
| Time | Temp. | Humidity | Pressure | Rain* | Wind** | Luminosity | Snow |
|---|---|---|---|---|---|---|---|
| 1777839749 | 15.56° C | 33% | 1013.7 hPa | 0 mm | - | - | - |
| 1777839447 | 15.56° C | 31% | 1013.8 hPa | 0 mm | - | - | - |
| 1777839147 | 15.56° C | 30% | 1013.8 hPa | 0 mm | - | - | - |
| 1777838847 | 15.56° C | 33% | 1013.9 hPa | 0 mm | - | - | - |
| 1777838547 | 15° C | 36% | 1013.9 hPa | 0 mm | - | - | - |
| 1777838248 | 15° C | 36% | 1014 hPa | 0 mm | - | - | - |
| 1777837948 | 14.44° C | 32% | 1014.1 hPa | 0 mm | - | - | - |
| 1777837647 | 15° C | 35% | 1014.2 hPa | 0 mm | - | - | - |
| 1777837347 | 15° C | 34% | 1014.2 hPa | 0 mm | - | - | - |
| 1777837048 | 14.44° C | 39% | 1014.3 hPa | 0 mm | - | - | - |
| 1777836747 | 15° C | 34% | 1014.3 hPa | 0 mm | - | - | - |
| 1777836447 | 15° C | 34% | 1014.3 hPa | 0 mm | - | - | - |
| 1777836147 | 15° C | 37% | 1014.4 hPa | 0 mm | - | - | - |
| 1777835847 | 15° C | 38% | 1014.4 hPa | 0 mm | - | - | - |
| 1777835547 | 15° C | 35% | 1014.4 hPa | 0 mm | - | - | - |
| 1777835247 | 15° C | 34% | 1014.4 hPa | 0 mm | - | - | - |
| 1777834647 | 15° C | 35% | 1014.6 hPa | 0 mm | - | - | - |
| 1777834347 | 15° C | 39% | 1014.6 hPa | 0 mm | - | - | - |
| 1777834049 | 14.44° C | 36% | 1014.6 hPa | 0 mm | - | - | - |
| 1777833748 | 15° C | 36% | 1014.8 hPa | 0 mm | - | - | - |
| 1777833447 | 15° C | 35% | 1014.8 hPa | 0 mm | - | - | - |
| 1777833147 | 15° C | 34% | 1014.9 hPa | 0 mm | - | - | - |
| 1777832848 | 14.44° C | 40% | 1014.8 hPa | 0 mm | - | - | - |
| 1777832548 | 14.44° C | 38% | 1015 hPa | 0 mm | - | - | - |
| 1777832248 | 14.44° C | 38% | 1014.9 hPa | 0 mm | - | - | - |
* Rain latest hour (hover to see other rain measurements)
** Current wind speed in m/s (hover to see current wind gust speed)